When you browse on this site, cookies collect data to enhance your experience and personalize the content and advertising you see.
Visit our Privacy Policy to learn more. By continuing to use the site, you agree to this use of cookies and data.
  • Em Portugal
  • Lista de países
  • Para 7 dias
  • Temperatura da água
  • Mapa do tempo
  • Widgets de tempo
  • user-avatar
    Iniciar Sessão

    Previsão horária em Biskamzha

    Hoje, 5 Junho, Sexta-feira

    Tempo Temperatura Precipitação Vento Pressão Humidade
    00:00 +6°C° 0 mm 1 m/s 695 mmHg 89%
    01:00 +5°C° 0.2 mm 0 m/s 695 mmHg 90%
    02:00 +6°C° 0.2 mm 0 m/s 695 mmHg 92%
    03:00 +6°C° 0.2 mm 0 m/s 694 mmHg 93%
    04:00 +6°C° 0.2 mm 0 m/s 694 mmHg 94%
    05:00 +7°C° 0.2 mm 0 m/s 694 mmHg 94%
    06:00 +7°C° 0 mm 0 m/s 694 mmHg 96%
    07:00 +8°C° 0.3 mm 0 m/s 694 mmHg 94%
    08:00 +8°C° 0.3 mm 0 m/s 694 mmHg 92%
    09:00 +9°C° 0.3 mm 0 m/s 694 mmHg 91%
    10:00 +10°C° 0.6 mm 0 m/s 694 mmHg 86%
    11:00 +12°C° 0.6 mm 1 m/s 694 mmHg 82%
    12:00 +14°C° 0 mm 1 m/s 694 mmHg 78%
    13:00 +13°C° 0.9 mm 1 m/s 694 mmHg 79%
    14:00 +13°C° 0.9 mm 1 m/s 693 mmHg 81%
    15:00 +12°C° 0.9 mm 1 m/s 693 mmHg 82%
    16:00 +12°C° 0.5 mm 1 m/s 694 mmHg 82%
    17:00 +11°C° 0.5 mm 1 m/s 694 mmHg 81%
    18:00 +11°C° 0 mm 1 m/s 695 mmHg 79%
    19:00 +9°C° 0.1 mm 1 m/s 695 mmHg 83%
    20:00 +8°C° 0.1 mm 1 m/s 695 mmHg 88%
    21:00 +6°C° 0.1 mm 1 m/s 695 mmHg 92%
    22:00 +6°C° 0.1 mm 1 m/s 696 mmHg 94%
    23:00 +6°C° 0.1 mm 1 m/s 696 mmHg 95%

    Amanhã, 6 Junho, Sábado

    Tempo Temperatura Precipitação Vento Pressão Humidade
    00:00 +5°C° 0.1 mm 1 m/s 696 mmHg 97%
    01:00 +4°C° 0 mm 2 m/s 696 mmHg 97%
    02:00 +4°C° 0 mm 2 m/s 696 mmHg 97%
    03:00 +4°C° 0 mm 2 m/s 696 mmHg 98%
    04:00 +5°C° 0.3 mm 2 m/s 697 mmHg 97%
    05:00 +5°C° 0.3 mm 2 m/s 698 mmHg 97%
    06:00 +5°C° 0.3 mm 2 m/s 698 mmHg 97%
    07:00 +5°C° 0.1 mm 3 m/s 699 mmHg 93%
    08:00 +6°C° 0.1 mm 4 m/s 699 mmHg 89%
    09:00 +7°C° 0.1 mm 4 m/s 700 mmHg 85%
    10:00 +7°C° 0.2 mm 4 m/s 700 mmHg 86%
    11:00 +7°C° 0.2 mm 4 m/s 700 mmHg 87%
    12:00 +7°C° 0.2 mm 3 m/s 700 mmHg 88%
    13:00 +7°C° 0.4 mm 3 m/s 700 mmHg 89%
    14:00 +8°C° 0.4 mm 3 m/s 700 mmHg 90%
    15:00 +8°C° 0.4 mm 3 m/s 700 mmHg 91%
    16:00 +8°C° 0.3 mm 3 m/s 700 mmHg 92%
    17:00 +8°C° 0.3 mm 2 m/s 701 mmHg 92%
    18:00 +8°C° 0.3 mm 2 m/s 701 mmHg 92%
    19:00 +7°C° 0.1 mm 2 m/s 702 mmHg 94%
    20:00 +8°C° 0.1 mm 1 m/s 702 mmHg 95%
    21:00 +7°C° 0.1 mm 1 m/s 702 mmHg 96%
    22:00 +7°C° 0 mm 1 m/s 702 mmHg 97%
    23:00 +7°C° 0 mm 1 m/s 703 mmHg 97%

    Depois de amanhã, 7 Junho, Domingo

    Tempo Temperatura Precipitação Vento Pressão Humidade
    00:00 +7°C° 0 mm 1 m/s 703 mmHg 98%
    01:00 +7°C° 0 mm 1 m/s 703 mmHg 98%
    02:00 +7°C° 0 mm 1 m/s 703 mmHg 98%
    03:00 +6°C° 0 mm 1 m/s 703 mmHg 98%
    04:00 +6°C° 0.1 mm 2 m/s 703 mmHg 98%
    05:00 +7°C° 0.1 mm 2 m/s 703 mmHg 97%
    06:00 +7°C° 0.1 mm 2 m/s 704 mmHg 96%
    07:00 +8°C° 0.3 mm 2 m/s 703 mmHg 95%
    08:00 +8°C° 0.3 mm 3 m/s 703 mmHg 94%
    09:00 +8°C° 0.3 mm 3 m/s 703 mmHg 93%
    10:00 +8°C° 0.7 mm 3 m/s 703 mmHg 94%
    11:00 +8°C° 0.7 mm 3 m/s 703 mmHg 94%
    12:00 +8°C° 0.7 mm 2 m/s 703 mmHg 94%
    13:00 +9°C° 0.2 mm 3 m/s 702 mmHg 92%
    14:00 +9°C° 0.2 mm 3 m/s 702 mmHg 89%
    15:00 +10°C° 0.2 mm 3 m/s 702 mmHg 87%
    16:00 +10°C° 0.6 mm 3 m/s 702 mmHg 90%
    17:00 +9°C° 0.6 mm 2 m/s 702 mmHg 92%
    18:00 +9°C° 0.6 mm 2 m/s 702 mmHg 95%
    19:00 +9°C° 0.3 mm 2 m/s 702 mmHg 96%
    20:00 +8°C° 0.3 mm 2 m/s 702 mmHg 97%
    21:00 +8°C° 0.3 mm 2 m/s 702 mmHg 98%
    22:00 +7°C° 0.4 mm 2 m/s 702 mmHg 98%
    23:00 +8°C° 0.4 mm 1 m/s 702 mmHg 98%

    8 Junho, Segunda-feira

    Tempo Temperatura Precipitação Vento Pressão Humidade
    00:00 +7°C° 0.4 mm 1 m/s 702 mmHg 98%
    01:00 +7°C° 0.1 mm 1 m/s 702 mmHg 98%
    02:00 +7°C° 0.1 mm 1 m/s 702 mmHg 98%
    03:00 +7°C° 0.1 mm 1 m/s 701 mmHg 98%
    04:00 +7°C° 0 mm 1 m/s 702 mmHg 96%
    05:00 +8°C° 0 mm 1 m/s 702 mmHg 95%
    06:00 +8°C° 0 mm 1 m/s 703 mmHg 93%
    07:00 +9°C° 0.1 mm 2 m/s 703 mmHg 83%
    08:00 +10°C° 0.1 mm 2 m/s 703 mmHg 73%
    09:00 +13°C° 0.1 mm 2 m/s 703 mmHg 63%
    10:00 +12°C° 0.1 mm 3 m/s 703 mmHg 58%
    11:00 +13°C° 0.1 mm 3 m/s 704 mmHg 52%
    12:00 +14°C° 0.1 mm 3 m/s 704 mmHg 46%
    13:00 +16°C° 0 mm 3 m/s 704 mmHg 46%
    14:00 +15°C° 0 mm 4 m/s 703 mmHg 46%
    15:00 +15°C° 0 mm 4 m/s 703 mmHg 46%
    16:00 +15°C° 0 mm 4 m/s 703 mmHg 49%
    17:00 +14°C° 0 mm 3 m/s 703 mmHg 51%
    18:00 +14°C° 0 mm 3 m/s 703 mmHg 53%
    19:00 +12°C° 0 mm 3 m/s 703 mmHg 60%
    20:00 +10°C° 0 mm 2 m/s 703 mmHg 67%
    21:00 +8°C° 0 mm 2 m/s 702 mmHg 73%
    22:00 +8°C° 0.2 mm 2 m/s 702 mmHg 79%
    23:00 +8°C° 0.2 mm 3 m/s 702 mmHg 86%

    9 Junho, Terça-feira

    Tempo Temperatura Precipitação Vento Pressão Humidade
    00:00 +8°C° 0.2 mm 3 m/s 701 mmHg 92%
    01:00 +8°C° 2.2 mm 3 m/s 701 mmHg 94%
    02:00 +8°C° 2.2 mm 3 m/s 700 mmHg 96%
    03:00 +8°C° 2.2 mm 2 m/s 700 mmHg 98%
    04:00 +8°C° 1.3 mm 2 m/s 700 mmHg 98%
    05:00 +8°C° 1.3 mm 2 m/s 700 mmHg 98%
    06:00 +9°C° 1.3 mm 2 m/s 699 mmHg 98%
    07:00 +9°C° 1.3 mm 2 m/s 699 mmHg 98%
    08:00 +10°C° 1.3 mm 2 m/s 699 mmHg 98%
    09:00 +10°C° 1.3 mm 2 m/s 699 mmHg 98%
    10:00 +10°C° 1.5 mm 2 m/s 699 mmHg 98%
    11:00 +12°C° 1.5 mm 2 m/s 699 mmHg 98%
    12:00 +12°C° 1.5 mm 2 m/s 699 mmHg 98%
    13:00 +13°C° 0.5 mm 2 m/s 699 mmHg 95%
    14:00 +13°C° 0.5 mm 3 m/s 699 mmHg 93%
    15:00 +13°C° 0.5 mm 3 m/s 699 mmHg 91%
    16:00 +13°C° 0.5 mm 3 m/s 699 mmHg 92%
    17:00 +14°C° 0.5 mm 3 m/s 699 mmHg 94%
    18:00 +15°C° 0.5 mm 2 m/s 699 mmHg 95%
    19:00 +14°C° 2.1 mm 2 m/s 699 mmHg 96%
    20:00 +14°C° 2.1 mm 2 m/s 699 mmHg 97%
    21:00 +14°C° 2.1 mm 2 m/s 699 mmHg 98%
    22:00 +13°C° 1.1 mm 2 m/s 699 mmHg 99%
    23:00 +13°C° 1.1 mm 2 m/s 698 mmHg 99%

    10 Junho, Quarta-feira

    Tempo Temperatura Precipitação Vento Pressão Humidade
    00:00 +13°C° 1.1 mm 2 m/s 698 mmHg 99%
    01:00 +13°C° 1.5 mm 2 m/s 698 mmHg 99%
    02:00 +13°C° 1.5 mm 2 m/s 697 mmHg 99%
    03:00 +12°C° 1.5 mm 2 m/s 697 mmHg 99%
    04:00 +13°C° 1.4 mm 1 m/s 697 mmHg 99%
    05:00 +13°C° 1.4 mm 1 m/s 697 mmHg 99%
    06:00 +13°C° 1.4 mm 1 m/s 697 mmHg 99%
    07:00 +12°C° 1.5 mm 1 m/s 697 mmHg 98%
    08:00 +12°C° 1.5 mm 2 m/s 697 mmHg 98%
    09:00 +12°C° 1.5 mm 2 m/s 698 mmHg 97%
    10:00 +10°C° 2.8 mm 2 m/s 698 mmHg 97%
    11:00 +10°C° 2.8 mm 1 m/s 698 mmHg 97%
    12:00 +10°C° 2.8 mm 1 m/s 698 mmHg 97%
    13:00 +11°C° 0.8 mm 1 m/s 699 mmHg 92%
    14:00 +12°C° 0.8 mm 1 m/s 699 mmHg 88%
    15:00 +13°C° 0.8 mm 0 m/s 700 mmHg 83%
    16:00 +14°C° 0 mm 1 m/s 700 mmHg 81%
    17:00 +14°C° 0 mm 1 m/s 700 mmHg 79%
    18:00 +15°C° 0 mm 1 m/s 700 mmHg 77%
    19:00 +13°C° 0 mm 1 m/s 700 mmHg 84%
    20:00 +12°C° 0 mm 1 m/s 700 mmHg 90%
    21:00 +11°C° 0 mm 1 m/s 700 mmHg 97%
    22:00 +11°C° 0 mm 1 m/s 700 mmHg 97%
    23:00 +11°C° 0 mm 1 m/s 700 mmHg 98%
    Mostrar mais